Precipitable_Water
1.21 1.16 1.13 1.15 1.16 1.15 1.16 1.19 1.20 1.18 1.19 1.20 1.22 1.28 1.34 1.37 1.39 1.39 1.39 1.42 1.40 1.38 1.43 1.47 1.50 1.52 1.51 1.52 1.54 1.58 1.64 1.64 1.64 1.64 1.65 1.63 1.65 1.63 1.60 1.63 1.62 1.60 1.63 1.62 1.63 1.62 1.66 1.71 1.69 1.66 1.66 1.67 1.65 1.66 1.65 1.69 1.72 1.71 1.68 1.68 1.66 1.62 1.62
1.17 1.16 1.14 1.14 1.17 1.17 1.19 1.23 1.24 1.23 1.23 1.21 1.22 1.26 1.31 1.35 1.39 1.38 1.38 1.41 1.43 1.41 1.41 1.43 1.47 1.52 1.53 1.53 1.57 1.58 1.59 1.64 1.67 1.66 1.68 1.67 1.70 1.70 1.65 1.60 1.60 1.60 1.62 1.63 1.65 1.68 1.71 1.74 1.74 1.69 1.67 1.66 1.61 1.64 1.66 1.67 1.68 1.68 1.64 1.65 1.63 1.63 1.67
1.21 1.19 1.16 1.15 1.16 1.17 1.19 1.25 1.26 1.27 1.27 1.26 1.24 1.26 1.29 1.34 1.40 1.38 1.40 1.41 1.43 1.46 1.47 1.43 1.42 1.49 1.55 1.56 1.55 1.56 1.59 1.63 1.66 1.65 1.63 1.65 1.68 1.70 1.68 1.62 1.62 1.65 1.67 1.67 1.65 1.65 1.74 1.74 1.78 1.79 1.73 1.69 1.65 1.64 1.64 1.64 1.65 1.64 1.61 1.59 1.56 1.53 1.55
1.27 1.24 1.22 1.19 1.18 1.19 1.22 1.25 1.27 1.29 1.32 1.32 1.29 1.28 1.31 1.36 1.43 1.45 1.44 1.46 1.46 1.48 1.46 1.45 1.42 1.43 1.50 1.51 1.52 1.54 1.57 1.61 1.65 1.66 1.66 1.69 1.70 1.74 1.71 1.67 1.66 1.70 1.67 1.66 1.71 1.71 1.76 1.77 1.76 1.75 1.74 1.71 1.71 1.69 1.67 1.65 1.64 1.59 1.56 1.55 1.54 1.54 1.52
1.36 1.34 1.31 1.25 1.20 1.19 1.21 1.25 1.28 1.29 1.31 1.35 1.36 1.35 1.35 1.39 1.45 1.48 1.48 1.52 1.52 1.49 1.49 1.48 1.45 1.43 1.47 1.50 1.50 1.53 1.56 1.58 1.63 1.66 1.69 1.73 1.74 1.74 1.73 1.69 1.68 1.69 1.71 1.73 1.73 1.74 1.77 1.78 1.77 1.75 1.73 1.73 1.70 1.70 1.68 1.68 1.65 1.65 1.60 1.57 1.54 1.58 1.56
1.39 1.38 1.35 1.33 1.28 1.24 1.23 1.24 1.28 1.29 1.30 1.33 1.35 1.35 1.38 1.42 1.48 1.48 1.50 1.53 1.54 1.57 1.56 1.55 1.49 1.44 1.42 1.46 1.47 1.50 1.56 1.60 1.64 1.66 1.66 1.70 1.69 1.67 1.69 1.70 1.69 1.69 1.71 1.72 1.76 1.75 1.78 1.79 1.79 1.77 1.74 1.75 1.72 1.71 1.71 1.68 1.69 1.72 1.70 1.65 1.60 1.59 1.57
1.43 1.43 1.41 1.41 1.39 1.34 1.31 1.29 1.31 1.34 1.34 1.35 1.38 1.39 1.40 1.44 1.46 1.51 1.54 1.54 1.57 1.56 1.58 1.58 1.55 1.48 1.43 1.46 1.45 1.45 1.47 1.53 1.59 1.62 1.66 1.66 1.67 1.66 1.68 1.70 1.70 1.71 1.73 1.77 1.74 1.76 1.75 1.74 1.76 1.76 1.76 1.77 1.77 1.72 1.68 1.67 1.68 1.71 1.68 1.64 1.61 1.62 1.61
1.36 1.40 1.46 1.47 1.47 1.46 1.43 1.40 1.39 1.41 1.41 1.40 1.38 1.37 1.38 1.43 1.48 1.51 1.53 1.56 1.60 1.64 1.63 1.61 1.60 1.54 1.48 1.48 1.47 1.40 1.43 1.49 1.57 1.62 1.65 1.63 1.63 1.61 1.65 1.68 1.70 1.73 1.73 1.70 1.73 1.74 1.72 1.72 1.73 1.74 1.74 1.74 1.75 1.74 1.71 1.71 1.71 1.72 1.71 1.64 1.59 1.57 1.60
1.37 1.38 1.43 1.51 1.56 1.57 1.56 1.56 1.56 1.50 1.46 1.42 1.39 1.39 1.41 1.45 1.48 1.51 1.55 1.57 1.60 1.62 1.64 1.65 1.62 1.59 1.54 1.51 1.49 1.43 1.43 1.49 1.53 1.59 1.62 1.61 1.60 1.59 1.62 1.66 1.70 1.75 1.73 1.72 1.71 1.74 1.73 1.71 1.71 1.69 1.70 1.70 1.71 1.73 1.72 1.72 1.74 1.79 1.78 1.74 1.69 1.64 1.62
1.52 1.54 1.52 1.56 1.61 1.63 1.62 1.61 1.63 1.58 1.53 1.54 1.51 1.48 1.46 1.50 1.53 1.55 1.58 1.58 1.59 1.59 1.64 1.67 1.66 1.61 1.55 1.53 1.51 1.51 1.47 1.45 1.51 1.55 1.57 1.56 1.57 1.57 1.61 1.65 1.67 1.72 1.72 1.72 1.72 1.69 1.71 1.71 1.68 1.66 1.66 1.65 1.65 1.68 1.70 1.70 1.73 1.75 1.78 1.76 1.72 1.67 1.65
1.53 1.58 1.60 1.58 1.57 1.61 1.65 1.63 1.61 1.64 1.64 1.59 1.56 1.60 1.67 1.65 1.58 1.59 1.61 1.63 1.60 1.61 1.67 1.70 1.72 1.65 1.56 1.51 1.49 1.51 1.50 1.46 1.48 1.48 1.50 1.52 1.55 1.55 1.57 1.59 1.62 1.63 1.62 1.66 1.67 1.68 1.69 1.68 1.67 1.62 1.60 1.60 1.60 1.61 1.62 1.63 1.65 1.65 1.68 1.71 1.73 1.71 1.68
1.51 1.53 1.55 1.58 1.59 1.60 1.59 1.63 1.66 1.67 1.68 1.68 1.66 1.65 1.64 1.73 1.82 1.75 1.69 1.70 1.72 1.71 1.73 1.74 1.73 1.69 1.58 1.50 1.47 1.47 1.46 1.45 1.45 1.43 1.44 1.49 1.52 1.52 1.53 1.55 1.56 1.56 1.58 1.61 1.62 1.65 1.66 1.65 1.65 1.62 1.58 1.57 1.59 1.59 1.59 1.61 1.61 1.61 1.61 1.64 1.66 1.66 1.65
1.57 1.53 1.52 1.54 1.55 1.56 1.59 1.59 1.59 1.65 1.70 1.71 1.73 1.72 1.74 1.79 1.83 1.91 1.92 1.86 1.77 1.74 1.75 1.79 1.79 1.73 1.62 1.53 1.46 1.44 1.43 1.43 1.44 1.47 1.48 1.50 1.53 1.56 1.57 1.57 1.58 1.58 1.56 1.58 1.57 1.58 1.57 1.59 1.59 1.61 1.59 1.59 1.59 1.57 1.56 1.57 1.59 1.58 1.57 1.57 1.58 1.58 1.57
1.60 1.56 1.55 1.56 1.56 1.56 1.55 1.57 1.58 1.60 1.67 1.73 1.76 1.79 1.81 1.83 1.89 1.92 1.94 1.95 1.95 1.91 1.86 1.86 1.89 1.82 1.73 1.63 1.54 1.48 1.47 1.48 1.52 1.58 1.63 1.65 1.64 1.61 1.61 1.62 1.62 1.62 1.60 1.58 1.52 1.50 1.49 1.50 1.52 1.55 1.58 1.58 1.57 1.58 1.59 1.58 1.57 1.58 1.59 1.59 1.58 1.55 1.52
1.54 1.52 1.53 1.54 1.55 1.57 1.58 1.61 1.64 1.65 1.71 1.77 1.81 1.83 1.85 1.91 1.95 1.93 1.93 1.90 1.91 1.97 1.97 1.95 1.89 1.81 1.74 1.72 1.63 1.57 1.57 1.57 1.59 1.63 1.68 1.70 1.68 1.65 1.64 1.64 1.64 1.64 1.62 1.60 1.57 1.56 1.54 1.53 1.52 1.51 1.53 1.56 1.57 1.57 1.60 1.59 1.58 1.58 1.58 1.57 1.58 1.59 1.55
1.47 1.48 1.49 1.53 1.58 1.62 1.64 1.67 1.72 1.75 1.79 1.81 1.83 1.86 1.89 1.94 1.97 1.97 1.94 1.92 1.92 1.95 2.02 2.01 1.95 1.87 1.79 1.73 1.70 1.67 1.64 1.61 1.62 1.65 1.67 1.67 1.67 1.68 1.69 1.68 1.66 1.65 1.63 1.61 1.62 1.62 1.63 1.60 1.58 1.54 1.51 1.50 1.54 1.57 1.60 1.61 1.64 1.65 1.66 1.65 1.61 1.60 1.62
1.44 1.46 1.50 1.55 1.62 1.68 1.71 1.73 1.74 1.78 1.82 1.87 1.89 1.89 1.91 1.95 1.97 2.01 2.03 2.05 2.01 1.98 2.01 2.00 1.91 1.92 1.87 1.78 1.75 1.74 1.75 1.72 1.70 1.70 1.66 1.66 1.69 1.71 1.71 1.70 1.69 1.68 1.66 1.65 1.64 1.61 1.59 1.56 1.52 1.51 1.50 1.47 1.48 1.52 1.57 1.62 1.67 1.70 1.72 1.73 1.74 1.73 1.71
1.43 1.48 1.52 1.58 1.65 1.70 1.74 1.74 1.76 1.78 1.82 1.88 1.94 1.97 1.99 1.99 2.02 2.04 2.04 2.09 2.08 2.07 2.06 2.02 1.99 1.97 1.91 1.88 1.87 1.86 1.85 1.86 1.84 1.80 1.77 1.75 1.73 1.73 1.74 1.75 1.73 1.71 1.70 1.69 1.65 1.63 1.61 1.57 1.54 1.52 1.50 1.48 1.47 1.48 1.53 1.57 1.62 1.65 1.67 1.71 1.77 1.85 1.89
1.43 1.49 1.52 1.55 1.57 1.62 1.67 1.72 1.78 1.84 1.91 1.94 1.97 1.99 2.04 2.07 2.08 2.06 2.11 2.09 2.12 2.14 2.06 2.05 2.06 2.03 1.99 1.97 1.94 1.95 1.96 1.93 1.89 1.87 1.89 1.91 1.89 1.87 1.83 1.80 1.77 1.74 1.73 1.72 1.75 1.72 1.65 1.65 1.64 1.60 1.57 1.52 1.49 1.50 1.54 1.55 1.58 1.60 1.62 1.66 1.72 1.79 1.84
1.44 1.47 1.50 1.54 1.57 1.63 1.71 1.73 1.76 1.85 1.88 1.95 2.01 2.08 2.11 2.12 2.10 2.14 2.17 2.17 2.19 2.18 2.14 2.10 2.09 2.04 1.98 1.96 1.94 1.97 2.01 1.98 1.95 1.93 1.95 1.96 1.96 1.94 1.91 1.88 1.85 1.87 1.90 1.91 1.89 1.81 1.76 1.75 1.73 1.74 1.71 1.66 1.60 1.57 1.59 1.62 1.67 1.71 1.76 1.80 1.84 1.85 1.82
1.45 1.47 1.51 1.55 1.58 1.66 1.70 1.69 1.73 1.77 1.86 1.92 2.00 2.06 2.10 2.11 2.13 2.15 2.16 2.15 2.09 2.11 2.10 2.11 2.01 1.97 1.95 1.96 1.99 2.01 2.01 2.00 1.97 1.96 1.98 1.98 1.97 1.94 1.90 1.89 1.90 1.91 1.93 1.95 1.95 1.93 1.90 1.86 1.83 1.83 1.82 1.79 1.76 1.72 1.71 1.76 1.81 1.86 1.90 1.93 1.95 1.97 1.99
1.50 1.54 1.54 1.56 1.59 1.60 1.64 1.67 1.69 1.74 1.83 1.96 1.98 2.01 2.07 2.09 2.15 2.10 2.05 2.07 2.03 2.00 2.01 2.02 1.97 1.94 1.96 1.95 1.97 1.97 1.99 1.99 1.97 1.95 1.96 1.98 2.01 1.99 1.96 1.96 1.98 1.99 2.03 2.01 2.01 2.02 2.03 2.04 2.03 1.97 1.93 1.90 1.86 1.81 1.79 1.85 1.89 1.93 1.95 1.98 1.99 2.01 2.01
1.52 1.54 1.57 1.61 1.63 1.60 1.72 1.75 1.74 1.79 1.81 1.82 1.88 1.87 1.93 1.99 2.01 2.01 1.97 1.91 1.96 1.99 1.94 1.92 1.88 1.92 1.97 1.97 1.96 1.96 1.97 1.97 1.95 1.94 1.97 2.01 2.01 1.99 1.99 1.98 2.02 2.05 2.08 2.02 2.02 2.03 2.03 2.01 2.00 2.02 2.04 2.00 1.95 1.89 1.87 1.88 1.91 1.93 1.95 1.97 2.00 2.01 2.02
1.57 1.61 1.62 1.63 1.67 1.67 1.69 1.72 1.74 1.78 1.81 1.80 1.85 1.90 1.93 1.93 1.97 1.93 1.93 1.95 1.92 1.91 1.89 1.89 1.87 1.92 1.94 1.96 1.96 1.96 1.96 1.96 1.96 1.94 1.95 1.97 1.96 1.97 1.99 1.97 2.00 2.06 2.11 2.05 2.04 2.08 2.08 2.05 2.01 2.01 2.02 2.01 1.99 1.98 1.90 1.90 1.95 1.96 1.95 1.94 1.96 1.99 1.99
1.52 1.56 1.60 1.62 1.64 1.63 1.67 1.71 1.74 1.77 1.78 1.80 1.78 1.84 1.90 1.92 1.90 1.86 1.83 1.85 1.86 1.86 1.84 1.84 1.88 1.91 1.87 1.90 1.90 1.90 1.90 1.91 1.90 1.88 1.87 1.88 1.92 1.94 1.94 1.96 2.00 2.04 2.10 2.09 2.07 2.03 2.05 2.06 2.07 2.10 2.12 2.12 2.07 2.01 1.95 1.95 1.98 2.00 2.00 1.98 1.96 1.98 1.97
1.48 1.51 1.54 1.57 1.62 1.64 1.66 1.69 1.69 1.68 1.68 1.68 1.72 1.79 1.81 1.81 1.79 1.76 1.74 1.75 1.76 1.76 1.77 1.79 1.79 1.82 1.83 1.82 1.82 1.82 1.82 1.83 1.82 1.83 1.84 1.85 1.87 1.89 1.89 1.92 1.93 1.95 1.95 1.94 1.97 1.98 2.02 2.02 2.03 1.99 2.00 2.03 2.01 1.98 1.97 1.94 1.92 1.94 1.97 2.00 2.01 2.02 2.03
1.41 1.49 1.50 1.55 1.54 1.57 1.56 1.57 1.59 1.59 1.60 1.64 1.68 1.72 1.75 1.76 1.73 1.69 1.70 1.71 1.71 1.71 1.74 1.77 1.79 1.80 1.80 1.78 1.76 1.77 1.78 1.82 1.85 1.85 1.87 1.90 1.94 1.91 1.91 1.96 1.92 1.90 1.87 1.87 1.89 1.93 1.93 1.95 1.96 1.95 1.96 1.99 2.00 2.00 1.99 1.99 1.95 1.95 1.95 1.97 2.00 2.02 2.05
1.30 1.36 1.49 1.54 1.54 1.50 1.50 1.47 1.46 1.47 1.51 1.58 1.62 1.64 1.66 1.66 1.62 1.61 1.61 1.62 1.60 1.62 1.66 1.68 1.70 1.72 1.72 1.70 1.67 1.68 1.72 1.76 1.79 1.77 1.77 1.75 1.73 1.70 1.72 1.77 1.82 1.85 1.83 1.89 1.88 1.85 1.87 1.92 1.91 1.94 1.96 1.95 1.98 1.97 1.96 1.98 1.95 1.93 1.94 1.94 1.94 1.94 1.93
1.21 1.25 1.29 1.36 1.41 1.45 1.43 1.38 1.32 1.30 1.34 1.42 1.46 1.49 1.51 1.51 1.47 1.48 1.48 1.46 1.50 1.58 1.62 1.64 1.64 1.65 1.63 1.62 1.63 1.65 1.67 1.68 1.68 1.70 1.72 1.71 1.71 1.67 1.64 1.67 1.71 1.75 1.77 1.73 1.69 1.67 1.69 1.72 1.75 1.75 1.76 1.79 1.84 1.87 1.89 1.91 1.91 1.88 1.85 1.81 1.76 1.79 1.82
1.19 1.19 1.23 1.25 1.28 1.29 1.30 1.30 1.29 1.28 1.28 1.31 1.33 1.34 1.35 1.33 1.29 1.31 1.31 1.32 1.40 1.42 1.45 1.49 1.53 1.55 1.54 1.55 1.56 1.57 1.59 1.59 1.59 1.60 1.61 1.64 1.64 1.61 1.57 1.58 1.61 1.65 1.68 1.67 1.63 1.61 1.60 1.62 1.63 1.61 1.59 1.61 1.66 1.71 1.74 1.76 1.77 1.78 1.75 1.69 1.64 1.62 1.64
1.16 1.15 1.15 1.14 1.15 1.18 1.15 1.12 1.13 1.17 1.18 1.18 1.14 1.15 1.16 1.15 1.09 1.11 1.11 1.18 1.22 1.20 1.22 1.25 1.28 1.29 1.30 1.32 1.35 1.37 1.38 1.40 1.42 1.45 1.48 1.48 1.50 1.48 1.45 1.47 1.52 1.54 1.60 1.61 1.59 1.58 1.56 1.56 1.57 1.54 1.52 1.50 1.52 1.58 1.63 1.66 1.69 1.72 1.75 1.73 1.68 1.63 1.59
1.14 1.18 1.19 1.18 1.16 1.13 1.09 1.05 1.03 1.01 1.00 1.03 1.03 1.00 1.01 0.99 0.96 0.89 0.94 1.02 1.04 1.04 1.02 1.02 1.02 1.03 1.05 1.06 1.08 1.09 1.12 1.11 1.11 1.10 1.09 1.12 1.16 1.20 1.25 1.29 1.33 1.36 1.41 1.47 1.48 1.48 1.47 1.49 1.50 1.50 1.49 1.48 1.48 1.48 1.50 1.56 1.58 1.58 1.59 1.60 1.59 1.56 1.55
1.07 1.07 1.05 1.03 1.03 1.01 0.97 0.94 0.93 0.93 0.94 0.94 1.00 1.01 1.02 1.00 1.01 1.01 1.01 1.00 1.00 0.99 0.98 0.96 0.97 0.95 0.94 0.93 0.95 0.96 0.98 0.97 0.95 0.96 1.00 0.99 0.98 1.00 1.05 1.07 1.09 1.14 1.17 1.21 1.25 1.28 1.32 1.35 1.36 1.38 1.37 1.36 1.36 1.38 1.40 1.43 1.47 1.49 1.49 1.47 1.45 1.44 1.42
1.05 1.04 1.03 1.01 0.96 0.90 0.85 0.86 0.85 0.85 0.86 0.86 0.90 0.90 0.87 0.87 0.90 0.92 0.91 0.90 0.90 0.90 0.89 0.90 0.90 0.87 0.87 0.88 0.90 0.92 0.96 0.99 1.00 0.96 0.95 0.98 0.99 0.97 0.96 0.99 1.02 1.03 1.05 1.10 1.13 1.17 1.18 1.18 1.18 1.19 1.20 1.21 1.25 1.29 1.33 1.35 1.32 1.28 1.25 1.26 1.27 1.29 1.29
1.09 1.09 1.08 1.04 1.00 0.93 0.83 0.80 0.77 0.76 0.75 0.78 0.83 0.84 0.82 0.81 0.82 0.85 0.86 0.88 0.90 0.92 0.90 0.88 0.89 0.85 0.84 0.86 0.88 0.87 0.89 0.89 0.91 0.91 0.91 0.90 0.92 0.94 0.96 0.93 0.90 0.89 0.93 1.02 1.08 1.14 1.16 1.17 1.15 1.18 1.20 1.17 1.13 1.09 1.05 1.03 1.06 1.16 1.23 1.20 1.17 1.15 1.13
1.07 1.07 1.08 1.10 1.08 1.05 1.00 0.92 0.87 0.83 0.78 0.78 0.82 0.83 0.83 0.80 0.80 0.85 0.90 0.93 0.95 0.96 0.93 0.91 0.91 0.89 0.88 0.89 0.88 0.88 0.87 0.87 0.86 0.87 0.87 0.87 0.87 0.86 0.85 0.87 0.86 0.84 0.80 0.79 0.84 0.91 0.99 1.05 1.07 1.13 1.17 1.15 1.14 1.10 1.02 0.97 0.98 0.98 0.96 0.94 0.94 0.97 1.02
1.03 1.02 1.02 1.05 1.03 1.03 1.02 0.99 0.92 0.86 0.81 0.80 0.82 0.82 0.82 0.82 0.83 0.84 0.86 0.88 0.89 0.92 0.94 0.91 0.89 0.91 0.92 0.91 0.90 0.92 0.91 0.89 0.88 0.88 0.87 0.85 0.82 0.80 0.78 0.77 0.80 0.79 0.77 0.74 0.72 0.72 0.74 0.81 0.87 0.90 0.93 0.95 0.94 0.99 1.01 0.98 0.92 0.83 0.74 0.69 0.68 0.70 0.77
0.98 0.97 0.97 0.97 0.94 0.94 0.93 0.92 0.84 0.76 0.74 0.76 0.79 0.81 0.83 0.83 0.83 0.83 0.85 0.86 0.83 0.87 0.91 0.91 0.89 0.88 0.89 0.92 0.94 0.96 0.94 0.93 0.92 0.90 0.86 0.83 0.82 0.82 0.82 0.81 0.81 0.81 0.83 0.82 0.78 0.73 0.69 0.68 0.67 0.66 0.65 0.68 0.70 0.71 0.73 0.77 0.78 0.79 0.78 0.76 0.74 0.73 0.70
Wind_Speed
24 24 24 24 25 24 24 23 23 23 23 22 22 22 21 20 20 19 19 18 18 17 17 16 16 15 14 14 13 13 12 12 12 11 11 10 10 9 9 9 9 8 8 8 7 7 6 6 6 6 6 6 6 6 6 6 6 5 5 5 5 5 5
25 24 25 25 25 25 25 25 24 23 23 23 23 22 22 21 20 20 19 19 19 18 17 17 17 16 15 15 14 13 13 12 12 12 11 11 10 10 10 9 9 9 8 8 7 7 7 7 7 6 6 6 6 6 6 6 6 6 6 6 6 5 5
26 25 25 25 26 26 25 25 25 24 24 23 23 23 22 22 21 20 20 20 19 19 18 17 17 17 16 16 15 15 14 13 13 12 12 11 11 11 10 10 9 9 8 8 8 8 7 7 7 7 7 6 6 6 6 6 6 6 6 6 6 6 6
27 26 25 25 26 26 26 26 26 25 25 24 24 23 23 22 21 21 20 20 20 19 18 18 18 17 17 17 16 16 15 14 13 13 12 12 12 11 11 10 10 9 9 9 8 8 8 8 8 7 7 7 7 7 6 6 6 6 6 6 6 6 6
28 27 26 25 25 25 26 26 26 26 26 25 24 24 23 23 22 21 21 21 21 20 19 18 18 18 18 17 17 16 16 15 14 14 13 12 12 12 12 11 11 10 10 9 9 9 8 8 8 8 8 7 7 7 7 7 6 6 6 6 6 6 6
28 28 27 26 25 25 25 26 26 27 26 26 25 24 24 23 22 22 22 21 21 21 20 19 18 18 18 18 17 17 16 16 15 14 14 13 13 13 12 12 11 11 11 10 10 9 9 8 8 8 8 8 8 8 7 7 7 7 7 7 7 7 7
27 27 27 27 26 25 25 26 27 27 27 26 26 25 24 24 23 22 22 22 22 21 21 20 19 19 19 19 18 18 17 16 15 15 14 14 13 13 13 12 12 11 11 11 10 10 10 9 9 9 9 9 8 8 8 8 8 7 7 7 7 7 7
26 26 26 27 27 26 25 25 26 27 27 27 27 26 25 24 24 23 23 22 22 22 22 21 20 20 19 19 19 18 18 17 16 16 15 15 14 14 13 13 13 12 11 11 11 11 10 10 10 10 9 9 9 9 9 9 9 8 8 8 8 8 8
25 26 26 26 27 26 25 24 24 25 25 26 27 27 26 25 24 24 23 23 23 22 22 21 21 20 20 20 19 19 18 18 17 16 16 16 15 15 14 14 13 13 12 12 11 11 11 10 10 10 10 10 10 10 10 10 9 9 9 9 9 9 9
22 25 26 27 27 27 27 26 25 24 24 24 25 25 26 26 26 25 24 24 23 23 22 21 21 21 21 20 20 19 19 18 18 17 17 17 16 16 15 15 14 13 13 13 12 12 11 11 11 11 11 11 11 11 11 10 10 10 10 10 10 10 10
19 20 23 25 27 27 27 27 27 27 27 26 24 24 23 24 26 27 26 25 24 24 23 22 21 21 21 21 20 20 19 19 18 18 18 17 17 17 16 16 15 14 14 14 14 13 13 12 12 12 11 11 11 11 11 11 11 11 11 11 11 11 11
17 18 19 21 24 25 26 27 26 27 29 30 28 26 24 23 23 25 25 25 25 24 23 22 21 21 22 21 21 20 20 20 19 19 18 18 18 17 17 17 16 15 15 15 15 15 14 14 13 13 13 13 12 12 12 12 12 12 12 12 12 12 12
15 16 17 18 20 22 24 25 25 25 27 30 31 30 28 26 24 24 23 23 23 23 23 22 21 21 22 22 22 21 21 20 20 19 19 18 18 18 17 17 17 16 16 16 16 16 16 15 15 15 15 14 14 13 13 13 13 13 13 13 13 13 13
14 14 16 17 18 19 21 23 24 23 24 27 29 30 30 29 28 27 25 25 24 24 24 23 22 22 22 22 22 21 21 21 20 20 19 19 18 18 18 18 17 17 16 16 16 16 16 16 16 16 16 16 16 15 15 15 14 14 14 14 14 14 14
14 14 14 16 17 17 19 21 23 23 23 23 26 29 30 30 30 30 29 28 27 26 24 24 23 23 22 22 22 22 21 20 20 20 19 19 18 18 18 18 17 17 17 17 17 16 16 17 17 17 17 17 17 17 17 17 16 16 15 15 15 15 15
13 13 13 14 15 16 18 19 20 21 22 23 24 27 28 30 30 30 30 30 29 27 26 25 24 24 23 23 23 22 21 20 20 20 20 19 19 19 18 18 18 18 17 17 17 17 16 16 17 17 18 18 18 18 18 18 18 17 17 17 17 16 16
10 11 11 12 12 14 15 17 18 19 20 22 23 25 26 28 29 29 29 28 29 28 27 26 25 24 23 23 23 23 22 21 21 21 20 20 19 19 19 19 19 19 18 18 18 18 17 17 17 17 17 18 18 19 19 19 18 18 18 18 18 17 17
9 9 10 10 11 11 13 14 15 17 18 20 21 23 24 26 27 28 28 28 28 28 27 27 26 25 23 23 23 23 23 22 22 21 21 20 20 19 19 19 19 19 19 19 19 19 18 18 17 17 17 17 18 18 19 19 18 18 18 18 18 18 18
8 8 8 9 9 10 10 12 13 14 16 18 19 22 23 24 25 26 26 27 27 27 27 26 26 25 24 23 23 23 23 23 22 22 21 21 21 20 20 19 19 19 19 20 20 19 19 19 19 18 18 18 17 18 18 18 19 19 19 19 19 19 19
8 8 8 8 9 9 10 10 11 12 13 15 17 19 21 22 23 24 24 24 25 25 25 24 24 24 24 23 22 23 22 22 22 22 22 21 21 21 21 21 20 20 20 20 20 20 20 20 20 19 19 19 18 18 18 19 19 20 20 20 20 20 20
9 8 8 8 8 9 9 9 9 9 10 11 13 16 18 20 21 22 23 22 22 22 22 21 21 21 22 22 22 23 23 23 22 22 22 22 21 22 22 22 22 22 22 22 22 22 22 22 21 21 20 20 20 20 20 21 21 21 21 22 22 22 22
9 9 8 8 7 7 7 8 8 8 8 8 9 11 14 16 17 18 19 20 20 20 20 19 19 19 20 21 21 22 22 23 23 22 22 22 22 22 22 22 23 23 24 24 24 24 24 24 23 22 22 22 22 22 22 22 23 23 23 24 24 24 24
9 9 9 8 7 7 7 8 8 8 7 7 7 8 9 11 13 14 15 16 17 17 17 17 17 17 18 19 19 20 20 21 21 21 21 21 22 22 22 23 23 24 24 24 24 24 25 25 25 25 24 24 24 24 24 24 24 25 25 26 26 26 26
9 9 9 9 8 8 8 9 8 8 8 8 7 7 8 9 10 11 12 12 13 14 14 14 14 14 15 15 16 17 18 18 19 19 19 19 19 20 21 21 22 23 23 23 23 23 24 26 27 27 27 27 27 27 27 27 27 27 27 28 28 28 29
9 9 9 9 9 9 9 9 9 9 9 8 8 8 9 9 10 10 10 10 11 11 11 11 11 12 12 12 13 14 15 16 17 17 17 18 18 19 19 20 21 22 21 21 21 22 23 24 25 26 27 28 28 28 29 29 29 28 28 29 29 30 30
10 10 10 10 10 10 10 10 10 9 9 9 9 9 10 10 10 10 10 10 10 10 10 10 11 11 11 11 11 12 13 14 15 17 18 18 19 19 20 20 21 21 20 20 20 20 21 21 22 23 24 26 27 27 28 28 28 27 27 28 28 29 30
9 9 9 10 11 10 10 11 10 10 10 10 10 10 10 10 10 10 10 10 10 11 11 12 12 12 11 11 11 12 12 13 14 15 16 17 18 18 19 20 20 20 19 19 19 18 18 18 18 19 20 21 22 24 24 25 25 25 25 26 26 27 27
8 7 8 9 10 10 10 10 10 10 10 10 10 10 10 11 10 10 10 9 10 10 11 12 12 12 12 12 12 12 13 13 13 14 14 15 15 16 17 18 18 18 18 18 17 17 16 17 17 17 17 18 18 19 20 20 21 22 23 23 23 24 24
9 9 8 8 8 9 9 9 9 9 9 9 9 9 9 9 9 10 10 10 10 10 11 11 11 11 12 12 12 12 12 12 12 13 13 14 14 15 15 16 17 17 17 17 16 16 16 16 17 17 16 16 16 17 17 18 18 19 20 20 21 21 21
9 9 9 8 8 9 9 8 8 8 8 8 8 7 8 8 8 9 9 10 10 10 11 11 11 11 11 11 12 12 12 12 12 13 13 13 14 14 14 15 15 16 16 16 16 16 16 16 17 17 17 17 17 17 17 17 17 17 17 18 18 18 18
9 9 8 8 8 9 9 9 9 9 8 8 8 8 8 8 8 8 9 10 10 10 10 10 11 11 11 11 12 12 13 13 13 13 14 14 14 14 14 15 15 15 16 17 17 17 17 17 17 17 17 17 17 17 17 17 17 17 17 18 18 18 18
9 9 9 9 9 9 10 10 9 9 9 8 8 8 8 8 8 9 9 10 10 11 11 11 11 11 11 11 12 12 13 13 14 14 14 15 15 15 15 15 15 15 16 16 17 17 18 18 18 18 18 17 17 17 17 17 18 18 19 19 19 18 19
9 10 10 10 10 10 10 10 10 9 9 9 9 9 9 9 9 9 10 10 11 11 12 12 12 12 12 12 13 13 14 14 14 15 15 15 15 16 16 16 16 16 16 16 17 17 17 18 18 18 18 19 19 18 18 19 19 20 20 20 20 20 20
9 10 10 10 10 10 11 10 10 10 10 10 10 10 10 10 10 11 11 11 12 12 13 13 13 14 14 14 14 14 15 15 15 16 16 16 16 16 17 17 17 17 18 18 18 18 18 19 19 19 19 19 19 19 19 19 20 20 21 21 22 21 21
10 10 11 11 11 11 11 11 11 11 11 11 11 11 11 11 12 12 12 12 12 13 13 14 15 15 15 16 15 15 16 16 16 17 17 17 18 18 18 18 19 19 19 19 20 20 20 21 20 20 20 20 20 20 20 20 21 21 22 22 23 23 23
11 11 11 11 11 11 11 11 12 12 12 12 12 12 12 13 13 14 14 14 14 15 15 15 16 16 17 17 17 17 18 18 18 18 18 19 20 20 20 20 21 21 21 21 21 21 22 22 22 22 22 22 22 22 22 22 22 22 23 23 24 24 24
12 12 11 11 11 11 11 12 12 12 12 13 13 13 13 14 14 15 15 16 16 17 17 17 17 18 18 19 19 19 20 20 20 20 20 21 21 21 22 22 22 22 22 22 23 23 23 23 23 23 24 24 25 25 25 25 24 24 24 24 24 24 24
11 11 11 11 11 11 11 11 12 12 13 13 13 14 14 14 15 15 16 16 17 17 18 18 19 19 20 20 21 21 21 22 22 22 22 23 23 23 23 23 24 24 24 23 23 24 24 24 24 24 24 24 25 25 26 26 26 26 25 25 25 25 25
Wind_Direction
205 204 203 203 203 202 202 202 203 202 201 200 200 200 201 201 201 202 203 203 202 202 203 203 203 203 203 203 204 204 203 203 202 202 202 203 203 202 200 199 199 201 202 203 205 205 206 207 206 207 208 207 209 210 211 214 217 218 219 219 218 218 219
206 205 204 204 205 204 204 204 205 204 203 203 203 202 203 204 203 203 204 204 203 204 205 206 206 207 206 206 207 207 206 206 208 208 208 208 207 206 206 206 204 204 206 209 211 211 210 211 210 211 212 211 211 211 213 217 221 223 224 224 226 226 227
207 206 205 205 206 205 205 205 206 207 206 205 204 204 205 205 206 206 205 205 205 206 207 208 208 209 209 209 209 210 209 210 211 212 213 212 211 210 210 210 210 209 210 213 214 215 215 215 214 213 214 215 216 214 217 222 223 225 226 227 229 231 232
207 207 205 206 207 206 206 206 207 208 209 208 206 206 206 207 208 208 209 208 207 208 209 209 210 211 211 211 211 212 212 213 214 214 215 216 215 215 213 214 214 214 216 216 215 216 218 217 216 217 217 218 220 221 223 225 225 226 228 229 231 233 236
207 207 207 207 207 208 208 208 208 209 210 211 210 209 209 209 210 210 211 212 210 210 211 211 212 212 213 214 214 215 215 216 216 216 217 217 218 218 217 217 216 217 220 220 219 219 219 218 219 222 223 222 224 225 226 227 228 230 230 231 233 236 240
208 208 209 208 208 209 210 210 210 210 211 213 212 212 211 211 211 211 213 214 213 212 213 213 214 214 214 215 216 217 217 218 218 218 218 218 218 219 220 220 219 220 221 222 222 222 221 221 223 225 227 227 228 229 230 230 232 234 234 234 237 238 240
208 210 210 210 210 211 212 212 212 212 213 214 214 214 213 212 213 213 214 215 214 214 214 215 215 215 215 216 217 218 219 219 220 220 220 220 219 220 221 222 222 222 223 223 224 225 225 226 227 227 229 229 230 231 232 233 235 236 237 239 241 241 242
209 210 211 212 212 212 212 213 214 214 214 214 215 215 214 214 214 213 213 215 215 215 216 217 217 216 216 217 218 219 220 221 221 222 222 222 221 221 221 223 224 224 225 226 226 227 228 230 230 229 230 232 233 233 233 234 236 237 239 241 244 244 246
212 213 213 213 212 212 212 212 214 216 216 216 216 216 215 214 215 215 214 214 215 216 217 218 218 217 217 218 219 220 221 222 223 223 224 224 224 224 223 224 225 225 227 229 229 229 230 232 233 232 233 235 237 238 237 237 237 238 241 243 245 247 249
212 213 212 212 212 214 214 214 215 216 217 217 217 218 218 217 216 216 215 215 215 216 217 218 219 218 218 218 219 220 221 223 224 224 225 225 226 226 226 226 228 229 230 231 231 230 231 234 236 236 236 238 240 240 240 239 240 241 242 244 246 248 249
207 207 208 210 212 214 215 216 218 218 218 218 217 219 220 220 219 218 217 216 215 215 216 217 218 219 218 218 219 220 221 222 225 225 226 226 226 227 227 228 230 231 232 233 232 232 234 236 239 240 241 241 242 242 242 242 244 244 245 246 248 249 251
202 203 204 207 210 213 215 217 218 219 219 219 219 218 219 220 221 220 219 218 216 215 216 217 219 219 219 219 220 221 222 222 224 226 226 227 227 228 228 228 230 233 235 236 235 236 237 239 241 243 243 244 245 245 247 247 248 249 249 250 251 252 252
202 204 206 207 210 213 216 218 218 218 219 220 220 220 219 219 219 219 218 218 216 215 216 218 220 221 221 221 222 222 223 223 224 226 227 228 228 229 229 229 231 234 236 237 238 239 241 242 244 245 245 245 246 247 249 250 251 252 253 254 254 254 254
204 205 208 211 212 214 216 218 218 217 217 218 219 220 219 219 218 218 218 218 217 217 218 219 220 222 222 222 223 224 225 225 225 226 227 228 229 230 230 230 233 235 237 238 239 242 243 245 246 247 246 246 247 249 251 252 253 254 255 255 255 255 256
206 208 211 213 215 216 216 217 219 219 220 220 219 219 219 218 218 218 217 217 217 218 220 220 220 221 221 222 223 224 225 226 226 226 227 229 230 231 231 232 234 236 237 239 240 243 245 246 247 248 248 248 248 250 252 253 254 255 255 256 256 257 258
212 214 216 215 217 219 218 218 220 221 222 222 220 218 217 217 217 217 217 217 218 219 220 221 220 220 221 222 223 223 224 225 227 227 227 228 230 232 233 234 236 238 239 241 242 244 246 247 249 249 250 250 250 251 252 253 253 254 253 254 256 257 258
211 213 214 215 217 219 219 220 221 221 220 220 220 218 216 215 215 216 216 217 218 219 220 221 221 221 222 222 222 222 223 225 226 227 227 228 229 231 233 235 237 239 241 243 245 247 248 249 250 251 252 252 251 252 253 252 252 252 252 253 255 257 258
205 207 210 214 219 221 220 222 224 223 221 220 220 218 216 214 214 215 216 218 219 219 219 220 220 221 222 222 223 224 224 224 225 226 227 228 230 232 234 236 238 240 242 244 245 247 249 250 251 252 253 253 252 253 253 253 254 254 254 255 256 258 260
209 209 210 214 218 219 220 223 224 223 222 221 220 219 217 215 214 215 216 217 218 218 218 219 220 221 221 222 224 224 223 224 225 226 229 230 232 234 236 238 240 241 243 244 246 248 249 250 251 253 253 253 253 253 254 254 255 255 255 256 256 258 259
213 210 207 208 211 213 214 215 216 216 217 218 217 216 216 216 216 216 217 218 219 218 217 217 218 219 219 220 221 220 221 224 226 228 231 233 234 237 239 240 242 243 244 245 247 249 250 251 252 253 254 254 254 255 255 255 256 256 256 257 257 258 259
215 212 209 208 208 209 208 207 205 205 207 210 210 210 212 214 216 217 219 220 220 217 215 215 218 218 218 219 220 219 221 226 228 230 233 235 237 239 241 243 244 245 247 248 249 251 252 252 253 254 255 256 256 257 257 258 259 260 260 259 260 260 260
215 214 213 210 205 203 201 198 195 195 197 197 197 200 204 208 211 213 215 217 215 213 213 215 216 217 217 219 222 223 225 228 231 233 236 238 240 242 244 247 248 249 250 250 251 252 252 252 253 254 256 257 257 258 259 261 262 263 264 264 264 263 262
217 217 216 212 208 203 200 198 194 192 192 189 187 190 191 194 198 202 205 208 208 209 212 214 214 213 214 217 221 225 228 230 232 235 239 242 243 244 247 250 251 252 252 253 254 255 256 255 255 256 257 257 258 259 261 262 264 266 266 266 266 265 264
221 219 217 215 212 211 211 210 207 203 201 197 197 198 193 189 192 196 198 201 203 205 209 211 212 211 212 217 222 226 228 231 232 235 239 242 244 246 248 250 252 254 256 257 259 260 260 259 258 257 256 257 257 259 260 262 265 266 266 266 267 266 266
226 222 222 219 215 215 217 217 214 213 213 211 209 208 204 200 201 201 200 200 202 205 207 207 208 211 216 221 225 227 228 230 233 236 239 243 246 248 250 253 256 259 261 262 263 263 263 262 260 258 257 257 258 259 260 262 264 266 267 267 267 267 267
230 226 223 222 219 217 216 216 216 218 220 220 218 216 214 213 212 211 211 212 214 219 220 217 216 219 224 227 230 232 235 237 240 243 246 248 250 252 254 256 258 262 264 264 265 265 265 265 263 260 259 258 259 259 259 260 263 266 268 269 269 270 269
226 223 218 216 215 215 215 216 218 219 221 222 221 220 218 216 216 218 220 222 225 228 229 228 228 230 232 235 237 241 244 246 247 249 250 251 251 252 254 256 258 260 262 263 264 265 266 265 263 261 260 259 259 259 260 260 262 265 267 269 271 272 271
209 208 206 205 207 211 216 219 219 220 223 225 224 223 220 218 221 224 226 228 230 231 232 232 234 237 239 242 245 247 249 250 250 251 253 254 253 253 254 256 257 259 260 262 263 264 264 263 262 261 261 261 262 262 262 263 264 265 266 268 270 273 274
203 202 202 202 199 199 202 207 208 209 213 216 217 219 220 219 223 227 229 232 234 235 236 237 239 241 242 244 246 248 248 249 250 252 254 256 257 257 256 257 258 258 259 259 260 261 261 261 261 261 262 264 265 265 265 265 266 267 267 268 270 273 274
210 206 206 205 201 195 191 190 193 196 202 209 214 217 220 221 223 227 230 234 236 237 239 240 242 243 243 243 243 243 244 247 249 251 254 257 259 260 260 260 258 258 258 257 258 259 259 260 261 263 264 265 266 266 266 266 266 267 268 269 270 273 273
215 211 206 202 199 196 193 192 194 197 202 211 217 221 224 226 226 227 230 234 236 237 240 241 242 242 242 242 242 242 245 248 251 253 256 258 260 261 262 261 260 260 259 258 258 259 260 261 262 263 264 266 266 267 267 266 266 267 269 271 272 272 272
210 207 202 199 197 196 197 199 203 207 211 215 220 224 228 232 233 232 232 234 236 238 242 244 246 246 246 246 247 248 250 252 255 258 260 260 261 261 262 262 263 262 262 261 260 261 261 262 262 263 263 264 266 266 266 266 266 267 269 271 272 273 273
206 204 203 203 204 207 211 215 219 223 226 230 233 235 237 240 242 241 240 239 240 243 246 249 251 252 253 253 254 255 256 256 257 259 261 261 262 262 264 265 265 264 264 264 263 263 262 263 263 262 262 263 265 266 265 264 265 266 268 269 270 271 272
208 208 208 210 213 217 222 227 232 236 238 240 243 246 247 248 248 248 246 245 245 246 249 252 253 254 256 257 257 258 259 259 259 259 260 261 261 261 263 264 265 264 264 265 265 264 263 263 264 264 264 264 264 265 265 265 265 266 268 269 270 270 270
213 214 215 218 221 224 228 232 237 241 244 246 248 250 252 253 253 253 251 250 250 250 252 254 255 256 258 259 260 261 261 261 261 261 261 261 261 261 262 263 263 264 264 264 265 265 265 264 264 265 265 266 266 266 266 267 268 268 269 270 271 271 270
215 218 221 224 227 231 234 237 240 242 245 248 251 253 254 255 255 256 256 256 256 257 257 258 258 258 260 261 262 262 263 263 263 263 263 263 263 263 264 264 265 265 264 264 264 265 265 265 264 265 265 265 266 268 268 269 269 270 271 272 272 272 272
215 218 222 225 229 234 239 242 243 244 246 249 252 254 255 256 257 258 259 260 260 260 260 261 261 261 261 262 262 263 263 264 264 265 265 265 265 265 265 265 266 267 267 266 266 265 265 265 265 265 266 265 266 267 268 269 270 272 272 272 273 273 273
219 221 224 227 231 235 240 243 245 247 249 252 254 255 257 259 260 260 260 262 263 262 263 264 264 264 263 264 264 264 264 265 265 265 266 266 266 265 265 265 266 266 266 266 266 266 265 265 265 266 266 266 267 267 268 269 270 271 271 271 271 271 272